• In Czech Republic
  • List of Countries
  • For 7 days
  • Water Temperature
  • Satellite Maps
  • Weather Map
  • Weather Widgets
  • user-avatar
    Login

    Hourly Weather Bihać

    Today, 16 December, Saturday

    Time Temperature Precipitation Wind Pressure Humidity
    00:00 +3°C° 2.7 mm 3 mps 696 mmHg 93%
    01:00 0°C° 0 mm 4 mps 696 mmHg 95%
    02:00 0°C° 2.5 mm 3 mps 697 mmHg 94%
    03:00 0°C° 2.5 mm 3 mps 697 mmHg 94%
    04:00 0°C° 2.5 mm 3 mps 697 mmHg 94%
    05:00 0°C° 0.3 mm 3 mps 698 mmHg 93%
    06:00 +1°C° 0.3 mm 2 mps 698 mmHg 93%
    07:00 +1°C° 0.3 mm 2 mps 699 mmHg 92%
    08:00 +1°C° 0.1 mm 2 mps 700 mmHg 91%
    09:00 +2°C° 0.1 mm 2 mps 700 mmHg 91%
    10:00 +2°C° 0.1 mm 2 mps 701 mmHg 90%
    11:00 +3°C° 0.1 mm 2 mps 701 mmHg 90%
    12:00 +3°C° 0.1 mm 2 mps 702 mmHg 90%
    13:00 +4°C° 0.1 mm 2 mps 702 mmHg 90%
    14:00 +3°C° 0.1 mm 2 mps 702 mmHg 91%
    15:00 +3°C° 0.1 mm 2 mps 703 mmHg 92%
    16:00 +2°C° 0.1 mm 2 mps 703 mmHg 93%
    17:00 +2°C° 0.1 mm 2 mps 703 mmHg 92%
    18:00 +1°C° 0.1 mm 3 mps 703 mmHg 92%
    19:00 0°C° 0.1 mm 3 mps 703 mmHg 92%
    20:00 0°C° 0.1 mm 3 mps 704 mmHg 91%
    21:00 0°C° 0.1 mm 3 mps 704 mmHg 91%
    22:00 0°C° 0.1 mm 3 mps 704 mmHg 90%
    23:00 -1°C° 0.2 mm 4 mps 705 mmHg 89%

    Tomorrow, 17 December, Sunday

    Time Temperature Precipitation Wind Pressure Humidity
    00:00 -1°C° 0.2 mm 4 mps 705 mmHg 88%
    01:00 -2°C° 0.2 mm 5 mps 705 mmHg 87%
    02:00 -2°C° 0.2 mm 5 mps 706 mmHg 86%
    03:00 -3°C° 0.2 mm 6 mps 706 mmHg 86%
    04:00 -3°C° 0.2 mm 6 mps 706 mmHg 85%
    05:00 -3°C° 0.2 mm 6 mps 707 mmHg 85%
    06:00 -3°C° 0.2 mm 6 mps 707 mmHg 85%
    07:00 -3°C° 0.2 mm 6 mps 708 mmHg 85%
    08:00 -3°C° 0 mm 6 mps 708 mmHg 84%
    09:00 -2°C° 0 mm 6 mps 709 mmHg 83%
    10:00 -2°C° 0 mm 6 mps 710 mmHg 82%
    11:00 -2°C° 0 mm 6 mps 710 mmHg 80%
    12:00 -1°C° 0 mm 5 mps 710 mmHg 78%
    13:00 -1°C° 0 mm 5 mps 710 mmHg 77%
    14:00 -1°C° 0 mm 5 mps 710 mmHg 79%
    15:00 -2°C° 0 mm 4 mps 710 mmHg 82%
    16:00 -2°C° 0 mm 3 mps 711 mmHg 85%
    17:00 -2°C° 0 mm 3 mps 711 mmHg 86%
    18:00 -2°C° 0 mm 3 mps 712 mmHg 87%
    19:00 -4°C° 0 mm 3 mps 712 mmHg 88%
    20:00 -4°C° 0 mm 3 mps 713 mmHg 88%
    21:00 -4°C° 0 mm 3 mps 713 mmHg 88%
    22:00 -4°C° 0 mm 3 mps 713 mmHg 88%
    23:00 -4°C° 0 mm 3 mps 714 mmHg 87%

    Day after tomorrow, 18 December, Monday

    Time Temperature Precipitation Wind Pressure Humidity
    00:00 -5°C° 0 mm 3 mps 714 mmHg 87%
    01:00 -5°C° 0 mm 3 mps 714 mmHg 87%
    02:00 -5°C° 0 mm 3 mps 714 mmHg 86%
    03:00 -5°C° 0 mm 3 mps 714 mmHg 85%
    04:00 -5°C° 0 mm 3 mps 714 mmHg 85%
    05:00 -5°C° 0 mm 3 mps 714 mmHg 84%
    06:00 -5°C° 0 mm 2 mps 714 mmHg 83%
    07:00 -5°C° 0 mm 2 mps 715 mmHg 83%
    08:00 -3°C° 0 mm 2 mps 715 mmHg 79%
    09:00 -2°C° 0 mm 2 mps 715 mmHg 75%
    10:00 -1°C° 0 mm 2 mps 715 mmHg 71%
    11:00 +1°C° 0 mm 2 mps 715 mmHg 68%
    12:00 +1°C° 0 mm 2 mps 714 mmHg 66%
    13:00 +3°C° 0 mm 1 mps 714 mmHg 63%
    14:00 +2°C° 0 mm 1 mps 714 mmHg 67%
    15:00 +1°C° 0 mm 1 mps 714 mmHg 71%
    16:00 0°C° 0 mm 1 mps 713 mmHg 75%
    17:00 0°C° 0 mm 1 mps 714 mmHg 76%
    18:00 0°C° 0 mm 1 mps 714 mmHg 78%
    19:00 -1°C° 0 mm 1 mps 714 mmHg 80%
    20:00 -1°C° 0 mm 1 mps 715 mmHg 80%
    21:00 -1°C° 0 mm 1 mps 715 mmHg 81%
    22:00 -2°C° 0 mm 1 mps 715 mmHg 82%
    23:00 -4°C° 0 mm 2 mps 716 mmHg 82%

    19 December, Tuesday

    Time Temperature Precipitation Wind Pressure Humidity
    00:00 -4°C° 0 mm 2 mps 716 mmHg 82%
    01:00 -4°C° 0 mm 2 mps 716 mmHg 82%
    02:00 -5°C° 0 mm 2 mps 716 mmHg 82%
    03:00 -5°C° 0 mm 2 mps 717 mmHg 83%
    04:00 -5°C° 0 mm 2 mps 717 mmHg 83%
    05:00 -5°C° 0 mm 2 mps 717 mmHg 84%
    06:00 -6°C° 0 mm 3 mps 718 mmHg 86%
    07:00 -6°C° 0 mm 3 mps 718 mmHg 87%
    08:00 -5°C° 0 mm 3 mps 719 mmHg 83%
    09:00 -4°C° 0 mm 3 mps 720 mmHg 80%
    10:00 -2°C° 0 mm 3 mps 720 mmHg 76%
    11:00 -2°C° 0 mm 3 mps 720 mmHg 74%
    12:00 -1°C° 0 mm 2 mps 720 mmHg 72%
    13:00 -1°C° 0 mm 2 mps 720 mmHg 70%
    14:00 -2°C° 0 mm 2 mps 720 mmHg 73%
    15:00 -2°C° 0 mm 2 mps 720 mmHg 77%
    16:00 -3°C° 0 mm 2 mps 720 mmHg 81%
    17:00 -4°C° 0 mm 2 mps 720 mmHg 83%
    18:00 -4°C° 0 mm 2 mps 720 mmHg 85%
    19:00 -6°C° 0 mm 3 mps 720 mmHg 87%
    20:00 -6°C° 0 mm 3 mps 721 mmHg 87%
    21:00 -6°C° 0 mm 3 mps 721 mmHg 87%
    22:00 -7°C° 0 mm 3 mps 721 mmHg 87%
    23:00 -7°C° 0 mm 3 mps 721 mmHg 86%

    20 December, Wednesday

    Time Temperature Precipitation Wind Pressure Humidity
    00:00 -7°C° 0 mm 3 mps 721 mmHg 86%
    01:00 -7°C° 0 mm 3 mps 721 mmHg 86%
    02:00 -7°C° 0 mm 3 mps 721 mmHg 86%
    03:00 -7°C° 0 mm 3 mps 721 mmHg 86%
    04:00 -7°C° 0 mm 3 mps 721 mmHg 85%
    05:00 -7°C° 0 mm 3 mps 721 mmHg 85%
    06:00 -8°C° 0 mm 3 mps 721 mmHg 85%
    07:00 -8°C° 0 mm 3 mps 721 mmHg 84%
    08:00 -6°C° 0 mm 3 mps 722 mmHg 81%
    09:00 -4°C° 0 mm 2 mps 722 mmHg 77%
    10:00 -3°C° 0 mm 2 mps 722 mmHg 73%
    11:00 -2°C° 0 mm 2 mps 722 mmHg 70%
    12:00 -1°C° 0 mm 2 mps 722 mmHg 67%
    13:00 +1°C° 0 mm 2 mps 722 mmHg 64%
    14:00 -1°C° 0 mm 2 mps 722 mmHg 69%
    15:00 0°C° 0 mm 1 mps 721 mmHg 73%
    16:00 0°C° 0 mm 1 mps 721 mmHg 78%
    17:00 -1°C° 0 mm 1 mps 721 mmHg 78%
    18:00 -3°C° 0 mm 2 mps 721 mmHg 77%
    19:00 -4°C° 0 mm 2 mps 721 mmHg 77%
    20:00 -3°C° 0 mm 2 mps 721 mmHg 76%
    21:00 -3°C° 0 mm 2 mps 721 mmHg 76%
    22:00 -2°C° 0 mm 2 mps 721 mmHg 75%
    23:00 -2°C° 0 mm 2 mps 721 mmHg 77%

    21 December, Thursday

    Time Temperature Precipitation Wind Pressure Humidity
    00:00 -1°C° 0 mm 3 mps 721 mmHg 78%
    01:00 -1°C° 0 mm 3 mps 721 mmHg 79%
    02:00 0°C° 0 mm 3 mps 721 mmHg 81%
    03:00 0°C° 0 mm 3 mps 721 mmHg 82%
    04:00 0°C° 0 mm 3 mps 721 mmHg 83%
    05:00 0°C° 0 mm 3 mps 721 mmHg 83%
    06:00 0°C° 0 mm 3 mps 721 mmHg 83%
    07:00 0°C° 0 mm 3 mps 721 mmHg 84%
    08:00 +2°C° 0 mm 2 mps 721 mmHg 82%
    09:00 +3°C° 0 mm 2 mps 721 mmHg 80%
    10:00 +5°C° 0 mm 2 mps 722 mmHg 79%
    11:00 +6°C° 0 mm 2 mps 721 mmHg 79%
    12:00 +6°C° 0 mm 2 mps 721 mmHg 79%
    13:00 +7°C° 0 mm 2 mps 721 mmHg 79%
    14:00 +6°C° 0 mm 2 mps 721 mmHg 81%
    15:00 +5°C° 0 mm 2 mps 721 mmHg 83%
    16:00 +4°C° 0 mm 2 mps 720 mmHg 84%
    17:00 +3°C° 0 mm 2 mps 720 mmHg 84%
    18:00 +3°C° 0 mm 2 mps 720 mmHg 84%
    19:00 +2°C° 0 mm 2 mps 720 mmHg 83%
    20:00 +3°C° 0 mm 2 mps 720 mmHg 83%
    21:00 +3°C° 0 mm 2 mps 720 mmHg 83%
    22:00 +3°C° 0 mm 2 mps 720 mmHg 82%
    23:00 +3°C° 0 mm 2 mps 720 mmHg 83%
    Show more